Hourly Data Report for October 16, 2013

All times are specified in Local Standard Time (LST). Add 1 hour to adjust for Daylight Saving Time where and when it is observed.

ST LEONARD CS
NEW BRUNSWICK

47°09'28.050" N
67°49'55.014" W
245.00 m
810I001
71019
WIY

Download Data

Hourly Data (October 2013)
Hourly Data Report for October 16, 2013
Temp Definition
°C
Dew Point Temp Definition
°C
Rel Hum Definition
%
Wind Dir Definition
10's deg

Wind Spd Definition
km/h
Visibility Definition
km
Stn Press Definition
kPa
Hmdx Definition


Wind Chill Definition


Weather Definition


TIME
00:00 4.4 1.9 84 10 2   99.34     LegendNANA
01:00 5.9 1.9 75 10 7   99.31     LegendNANA
02:00 6.0 1.9 75 11 7   99.30     LegendNANA
03:00 6.0 2.0 75 11 7   99.26     LegendNANA
04:00 6.2 2.5 77 13 4   99.22     LegendNANA
05:00 5.8 3.0 82 10 4   99.23     LegendNANA
06:00 6.1 3.3 82 11 6   99.25     LegendNANA
07:00 7.4 5.1 85 13 13   99.22     LegendNANA
08:00 8.4 6.5 88 13 17   99.19     LegendNANA
09:00 9.5 7.2 86 13 13   99.12     LegendNANA
10:00 10.3 8.0 86 15 11   99.09     LegendNANA
11:00 11.8 9.1 84 15 15   99.02     LegendNANA
12:00 12.6 9.8 83 17 22   98.99     LegendNANA
13:00 11.6 9.3 86 17 22   98.92     LegendNANA
14:00 11.6 9.7 88 16 24   98.84     LegendNANA
15:00 11.5 9.7 89 15 20   98.78     LegendNANA
16:00 12.1 9.4 84 15 22   98.71     LegendNANA
17:00 12.2 9.0 81 14 19   98.63     LegendNANA
18:00 12.3 9.3 82 16 19   98.62     LegendNANA
19:00 12.2 9.6 84 16 20   98.55     LegendNANA
20:00 12.1 9.9 86 17 15   98.55     LegendNANA
21:00 11.9 10.0 88 15 9   98.50     LegendNANA
22:00 11.5 10.2 92 12 6   98.44     LegendNANA
23:00 10.9 10.4 97 13 7   98.37     LegendNANA

Notes on Data Quality.

Legend

  • E = Estimated
  • M = Missing
  • NA = Not Available
  • ‡ = Partner data that is not subject to review by the National Climate Archives
Date modified: